Probability
0 0 0 0 0 0 0 0 0 0 0 3 10 16 19 23 29 16 19 19 16 13 6 3 3 0 0 0 0 0 10 6 10 19 19 16 16 10 19 16 19 26 26 26
0 0 0 0 0 0 0 0 0 3 3 10 13 23 19 23 23 19 23 26 19 13 10 6 3 3 6 10 3 3 3 3 0 3 13 16 10 6 6 6 16 16 13 19
0 0 0 0 0 0 0 0 0 0 0 0 16 13 19 35 32 26 19 19 16 13 10 10 6 10 6 6 0 3 3 3 0 0 3 10 10 13 10 10 6 6 13 10
0 0 0 0 0 0 0 0 0 0 0 0 0 0 19 23 35 39 26 23 19 16 10 10 10 6 3 3 3 3 3 3 3 0 0 10 10 10 3 3 0 0 0 3
0 0 0 0 0 0 0 0 0 0 0 0 0 0 6 16 26 29 26 19 13 10 6 6 6 6 3 3 0 0 0 3 3 3 3 0 0 0 0 0 0 0 0 0
0 0 0 0 0 0 0 0 0 0 0 0 0 0 3 10 19 23 23 19 16 13 13 3 0 0 0 0 0 0 3 3 3 3 3 0 0 0 0 0 3 3 0 0
0 0 0 0 0 0 0 0 0 0 0 0 0 0 0 3 3 10 19 19 16 6 3 0 0 0 0 0 0 0 0 0 0 3 3 3 0 0 0 0 0 0 0 0
0 0 0 0 0 0 0 0 0 0 0 0 0 0 3 3 10 10 13 16 6 3 3 0 0 0 0 0 0 0 0 0 0 3 3 0 0 0 0 0 0 0 0 0
0 0 0 0 0 0 0 0 0 0 0 0 0 0 0 3 10 10 10 6 6 3 3 0 0 0 0 0 0 0 0 0 0 3 3 0 0 0 0 0 0 0 0 0
0 0 0 0 0 0 0 0 0 0 0 0 0 0 0 10 13 10 6 3 0 0 0 0 0 0 0 0 3 0 0 0 0 0 3 0 0 0 0 0 0 0 0 0
0 0 0 0 0 0 0 0 0 0 0 0 0 0 0 3 6 10 6 3 0 0 0 0 0 0 0 0 3 3 3 0 0 3 3 0 0 0 0 0 0 0 0 0
0 0 0 0 0 0 0 0 0 0 0 0 0 0 0 0 3 6 3 0 0 0 0 0 0 0 0 0 0 0 3 0 0 3 3 0 0 0 0 0 0 0 0 0
0 0 0 0 0 0 0 0 0 0 0 0 0 0 0 0 0 0 0 0 0 0 0 0 0 0 0 0 0 0 0 3 3 0 0 0 0 0 0 0 0 0 0 0
0 0 0 0 0 0 0 0 0 0 0 0 0 0 0 0 0 0 0 0 0 0 0 0 0 0 0 0 0 0 0 0 0 0 0 0 0 0 0 0 0 0 0 0
0 0 0 0 0 0 0 0 0 0 0 0 0 0 0 0 0 0 0 0 0 0 0 0 0 0 0 0 0 0 0 0 0 0 0 0 0 0 0 0 0 0 0 0
0 0 0 0 0 0 0 0 0 0 0 0 0 0 0 0 0 0 0 0 0 0 0 0 0 0 0 0 0 0 0 0 0 0 0 0 0 0 0 0 0 0 0 0
0 0 0 0 0 0 0 0 0 0 0 0 0 0 0 0 0 0 0 0 0 0 0 0 0 0 0 0 0 0 0 0 0 0 0 0 0 0 0 0 0 0 0 0
0 0 0 0 0 0 0 0 0 0 0 0 0 0 0 0 0 0 0 0 0 0 0 0 0 0 0 0 0 0 0 0 0 0 0 0 0 0 0 0 0 0 0 0
0 0 0 0 0 0 0 0 0 0 0 0 0 0 0 0 0 0 0 0 0 0 0 0 0 0 0 0 0 0 0 0 0 0 0 0 0 0 0 0 0 0 0 0
0 0 0 0 0 0 0 0 0 0 0 0 0 0 0 0 0 0 0 0 0 0 0 0 0 0 0 0 0 0 0 0 0 0 0 0 0 0 0 0 0 0 0 0
0 0 0 0 0 0 0 0 0 0 0 0 0 0 0 0 0 0 0 0 0 0 0 0 0 0 0 0 0 0 0 0 0 0 0 0 0 0 0 0 0 0 0 0
0 0 0 0 0 0 0 0 0 0 0 0 0 0 0 0 0 0 0 0 0 0 0 0 0 0 0 0 0 0 0 0 0 0 0 0 0 0 0 0 0 0 0 0
0 0 0 0 0 0 0 0 0 0 0 0 0 0 0 0 0 0 0 0 0 0 0 0 0 0 0 0 0 0 0 0 0 0 0 0 0 0 0 0 0 0 0 0
0 0 0 0 0 0 0 0 0 0 0 0 0 0 0 0 0 0 0 0 0 0 0 0 0 0 0 0 0 0 0 0 0 0 0 0 0 0 0 0 0 0 0 0
0 0 0 0 0 0 0 0 0 0 0 0 0 0 0 0 0 0 0 0 0 0 0 0 0 0 0 0 0 0 0 0 0 0 0 0 0 0 0 0 0 0 0 0
0 0 0 0 0 0 0 0 0 0 0 0 0 0 0 0 0 0 0 0 0 0 0 0 0 0 0 0 0 0 0 0 0 0 0 0 0 0 0 0 0 0 0 0
Height
5802 5805 5806 5807 5810 5812 5814 5817 5819 5822 5823 5825 5827 5829 5831 5833 5834 5835 5836 5837 5838 5838 5838 5838 5837 5837 5837 5836 5835 5835 5835 5836 5836 5836 5837 5837 5838 5838 5838 5839 5840 5841 5842 5842
5800 5801 5803 5804 5806 5809 5811 5814 5817 5819 5820 5823 5824 5826 5828 5830 5831 5832 5833 5834 5834 5835 5834 5834 5834 5833 5833 5833 5832 5832 5832 5832 5832 5832 5833 5834 5834 5834 5834 5834 5835 5836 5836 5837
5797 5799 5800 5802 5804 5807 5809 5812 5814 5816 5818 5820 5822 5824 5826 5827 5828 5829 5830 5830 5831 5831 5830 5830 5830 5829 5829 5829 5829 5829 5829 5828 5828 5829 5829 5829 5829 5829 5829 5829 5830 5830 5830 5831
5795 5797 5799 5801 5803 5805 5807 5810 5812 5814 5816 5817 5820 5821 5823 5824 5826 5826 5827 5827 5827 5827 5826 5826 5826 5825 5825 5825 5825 5825 5825 5825 5825 5825 5825 5825 5824 5824 5824 5824 5824 5824 5824 5824
5794 5795 5797 5799 5801 5803 5806 5807 5809 5811 5813 5815 5816 5818 5820 5821 5823 5824 5824 5824 5824 5823 5823 5823 5823 5822 5822 5822 5822 5821 5821 5821 5821 5820 5820 5820 5820 5819 5819 5818 5818 5818 5818 5818
5793 5794 5796 5798 5800 5802 5804 5806 5807 5809 5810 5812 5813 5815 5817 5818 5820 5820 5820 5820 5819 5819 5819 5819 5819 5818 5818 5817 5817 5817 5816 5816 5815 5815 5814 5814 5814 5813 5813 5812 5811 5811 5811 5811
5792 5793 5795 5796 5798 5800 5802 5804 5806 5807 5808 5809 5811 5812 5815 5815 5816 5816 5816 5815 5815 5815 5814 5814 5814 5814 5813 5813 5812 5811 5811 5810 5809 5809 5808 5808 5807 5807 5806 5805 5804 5804 5804 5803
5790 5792 5793 5795 5797 5798 5800 5802 5804 5805 5806 5807 5808 5809 5811 5812 5812 5812 5812 5811 5811 5810 5810 5810 5809 5809 5809 5808 5807 5806 5805 5804 5803 5803 5802 5801 5800 5800 5799 5798 5797 5797 5796 5796
5788 5791 5792 5793 5795 5797 5798 5799 5801 5803 5803 5804 5805 5806 5807 5808 5808 5808 5808 5807 5807 5806 5805 5805 5804 5804 5803 5802 5802 5801 5799 5798 5797 5796 5795 5794 5793 5792 5791 5790 5790 5789 5789 5788
5786 5788 5789 5791 5793 5794 5796 5797 5799 5800 5800 5801 5802 5803 5804 5804 5804 5804 5803 5802 5801 5801 5800 5799 5798 5798 5797 5796 5795 5793 5792 5791 5790 5788 5787 5786 5785 5784 5783 5782 5781 5781 5780 5780
5784 5786 5788 5789 5790 5792 5794 5795 5796 5796 5797 5798 5799 5802 5801 5800 5800 5799 5799 5798 5796 5795 5794 5793 5792 5791 5790 5789 5788 5786 5784 5783 5781 5780 5779 5778 5777 5776 5775 5774 5773 5772 5772 5771
5781 5783 5784 5786 5787 5789 5790 5792 5793 5794 5795 5795 5796 5800 5797 5796 5796 5795 5794 5793 5792 5790 5789 5788 5786 5785 5784 5782 5781 5779 5777 5775 5774 5772 5771 5770 5768 5767 5766 5765 5764 5763 5763 5762
5777 5779 5781 5783 5786 5787 5788 5789 5790 5791 5792 5792 5792 5796 5793 5792 5791 5790 5789 5788 5786 5785 5784 5782 5780 5779 5777 5775 5773 5771 5769 5768 5766 5764 5762 5761 5760 5758 5757 5756 5755 5754 5754 5753
5774 5776 5779 5781 5782 5784 5785 5786 5787 5788 5789 5789 5789 5790 5789 5788 5787 5786 5784 5783 5781 5779 5778 5776 5774 5772 5770 5768 5766 5764 5762 5760 5758 5756 5754 5753 5751 5749 5748 5747 5746 5745 5745 5745
5771 5773 5774 5776 5778 5780 5782 5783 5784 5785 5785 5785 5786 5785 5785 5783 5782 5781 5779 5777 5775 5773 5771 5769 5766 5764 5762 5760 5758 5755 5753 5751 5750 5748 5746 5745 5743 5741 5740 5739 5738 5738 5738 5738
5767 5770 5771 5773 5775 5777 5779 5780 5781 5781 5781 5781 5781 5781 5780 5778 5777 5775 5773 5772 5769 5767 5764 5762 5759 5757 5754 5752 5750 5747 5745 5743 5742 5740 5739 5737 5736 5734 5733 5732 5731 5731 5731 5731
5764 5767 5769 5771 5772 5774 5776 5777 5777 5777 5777 5777 5777 5777 5775 5773 5771 5769 5767 5765 5763 5760 5757 5755 5752 5749 5747 5744 5742 5740 5738 5736 5734 5733 5731 5730 5729 5727 5726 5725 5724 5724 5724 5725
5762 5764 5766 5768 5770 5771 5775 5773 5774 5774 5773 5773 5772 5771 5769 5768 5766 5763 5761 5759 5756 5753 5750 5747 5744 5741 5739 5736 5734 5732 5731 5729 5727 5726 5724 5723 5722 5721 5720 5719 5718 5718 5719 5719
5760 5762 5764 5765 5767 5768 5770 5770 5770 5770 5769 5769 5767 5766 5764 5762 5760 5757 5754 5752 5749 5745 5742 5739 5736 5734 5731 5729 5727 5725 5724 5722 5721 5719 5718 5717 5715 5715 5714 5713 5713 5713 5714 5715
5759 5761 5763 5763 5765 5766 5768 5767 5766 5767 5766 5765 5763 5761 5759 5757 5755 5752 5748 5745 5742 5739 5736 5733 5730 5727 5725 5723 5721 5719 5718 5716 5715 5713 5712 5711 5711 5710 5710 5709 5709 5710 5711 5712
5758 5760 5761 5761 5762 5763 5764 5764 5764 5765 5763 5761 5759 5756 5754 5752 5749 5746 5742 5739 5736 5733 5730 5727 5724 5722 5719 5717 5715 5714 5712 5711 5710 5709 5708 5707 5707 5707 5706 5707 5707 5708 5709 5710
5759 5759 5760 5760 5761 5764 5762 5761 5761 5761 5758 5756 5754 5752 5749 5746 5743 5740 5737 5733 5730 5727 5725 5722 5719 5717 5715 5712 5711 5709 5708 5707 5706 5705 5704 5704 5704 5704 5705 5705 5706 5707 5707 5708
5759 5760 5760 5760 5762 5760 5760 5759 5758 5757 5755 5752 5750 5747 5745 5741 5738 5735 5732 5729 5726 5723 5720 5717 5715 5713 5711 5709 5707 5706 5704 5703 5702 5702 5702 5702 5702 5703 5704 5704 5705 5706 5707 5708
5760 5760 5760 5759 5759 5759 5758 5757 5756 5754 5752 5749 5746 5744 5740 5737 5734 5731 5728 5725 5722 5719 5716 5714 5712 5710 5708 5706 5705 5703 5702 5701 5701 5700 5701 5701 5702 5702 5703 5704 5705 5706 5707 5709
5762 5761 5760 5760 5759 5758 5757 5756 5754 5751 5749 5746 5743 5740 5737 5734 5730 5727 5725 5722 5719 5716 5713 5711 5710 5708 5707 5705 5704 5702 5701 5700 5700 5700 5701 5701 5701 5703 5704 5705 5706 5707 5708 5710
5762 5762 5761 5760 5759 5758 5756 5754 5752 5749 5747 5744 5741 5738 5735 5731 5728 5725 5723 5720 5717 5714 5712 5710 5709 5707 5706 5705 5703 5702 5701 5701 5701 5702 5702 5702 5703 5704 5705 5706 5708 5709 5710 5711
Wind_Speed
16 17 18 19 19 20 22 23 23 24 25 24 23 22 22 21 19 18 17 17 16 16 15 14 14 14 15 15 14 14 14 14 15 17 17 18 20 21 23 24 24 24 24 24
15 16 17 17 18 19 20 21 22 23 24 23 22 21 20 19 18 17 16 16 16 15 15 15 15 15 15 14 14 16 15 15 15 15 16 18 19 20 20 21 22 22 22 23
14 15 16 16 17 18 19 19 20 21 23 23 22 21 21 20 18 17 15 15 15 15 16 17 17 16 14 14 14 14 15 16 16 16 17 18 18 18 19 20 20 21 22 23
13 14 14 15 16 17 18 19 20 20 21 21 21 21 20 19 18 16 15 14 14 15 15 16 15 15 14 14 14 14 14 15 16 17 18 19 18 19 19 19 20 21 22 23
12 12 13 14 15 16 17 18 19 20 19 20 20 20 18 18 17 15 15 15 15 15 16 16 15 16 15 15 15 15 15 16 17 17 18 18 19 19 20 20 22 22 23 24
13 13 14 14 15 16 17 18 18 18 17 18 18 19 17 16 16 15 15 15 16 16 17 17 17 17 17 17 17 17 17 17 17 18 19 19 20 21 21 22 23 23 24 24
13 14 14 14 15 16 16 17 17 17 17 17 17 17 15 15 15 15 15 15 16 18 18 19 19 18 18 18 18 18 18 19 20 21 21 22 22 23 23 24 24 24 24 25
14 14 14 14 14 15 16 16 17 17 17 17 17 16 14 14 15 15 15 16 17 18 19 19 19 19 19 19 19 20 21 22 23 23 24 24 25 25 25 25 25 25 26 26
13 14 14 14 15 15 15 16 16 17 17 17 16 15 14 14 14 15 15 16 16 17 19 19 19 20 20 21 22 23 24 25 25 25 26 27 27 27 27 27 27 27 27 27
13 13 13 13 15 15 14 14 15 16 17 17 16 16 15 16 15 15 16 16 17 18 18 19 19 20 22 23 24 24 26 27 27 27 28 28 28 28 28 28 28 28 28 28
12 13 13 14 15 14 14 14 15 16 16 16 16 15 15 15 15 16 16 16 17 18 19 19 20 21 22 23 25 26 27 28 28 28 28 28 28 28 29 29 29 29 28 28
13 13 14 14 15 15 15 14 15 15 15 15 16 15 15 15 15 16 16 16 17 18 19 19 21 22 23 25 25 26 26 27 28 28 29 29 29 29 29 29 30 30 30 30
14 14 15 14 15 15 16 15 14 14 14 14 15 14 14 15 16 15 16 17 18 19 20 20 22 23 24 25 26 26 26 27 27 28 29 29 30 30 30 30 30 30 29 29
15 15 15 15 15 14 15 15 14 15 15 15 15 14 15 16 17 17 17 18 20 20 21 23 23 24 25 25 26 26 26 27 28 28 28 28 28 28 28 28 28 27 27 27
15 15 15 14 15 15 14 15 15 15 16 16 15 16 16 17 18 18 19 21 22 22 23 24 25 25 26 26 26 27 27 27 27 26 26 26 26 26 25 25 25 25 24 24
14 15 14 13 14 14 14 13 14 15 15 16 17 17 18 19 20 20 21 22 23 24 24 25 25 26 26 27 27 27 26 26 25 25 25 24 24 24 23 23 23 23 22 22
13 13 14 13 13 14 14 14 14 15 16 17 17 18 20 21 21 22 23 23 24 25 25 25 26 26 26 26 26 26 25 24 24 24 24 23 23 23 22 21 21 20 20 19
12 12 12 12 12 13 13 14 14 15 16 17 18 19 20 21 22 22 23 24 25 25 25 24 25 25 25 25 25 24 23 23 23 23 22 22 22 20 19 19 18 17 17 17
9 9 9 11 11 11 12 12 13 14 15 16 17 19 20 21 21 22 23 24 24 24 23 24 24 23 23 23 23 22 22 22 21 21 20 19 18 17 16 15 14 14 14 14
7 7 7 8 9 10 10 11 12 13 14 15 17 18 19 20 20 21 22 22 22 22 21 21 21 22 22 21 20 20 20 19 18 18 17 16 15 14 12 11 10 10 10 10
4 5 6 7 7 8 9 10 12 12 13 15 16 17 19 20 21 21 21 21 20 20 20 20 20 20 20 19 18 17 17 16 15 14 13 12 10 9 8 7 7 6 6 7
1 2 4 5 6 6 8 9 10 12 14 15 17 18 19 20 20 20 20 20 19 19 18 18 17 17 15 14 14 13 12 11 11 10 9 8 6 5 5 5 4 4 5 5
1 1 2 3 5 6 7 9 11 13 15 16 18 19 19 19 19 19 18 18 18 17 16 16 15 14 13 12 11 10 9 8 8 7 5 4 3 3 3 3 4 4 4 4
2 2 2 3 4 5 7 9 11 13 14 16 17 17 17 18 17 16 17 17 17 15 14 13 12 11 10 9 8 7 6 5 4 3 2 2 2 3 3 3 3 3 4 5
3 3 4 4 5 6 7 9 11 13 14 14 15 15 16 16 15 14 14 14 14 13 11 9 9 8 7 7 6 5 4 2 0 1 2 2 3 4 4 5 5 5 5 5
4 4 5 5 6 7 8 10 11 13 13 14 14 15 15 15 14 13 13 12 11 10 9 7 7 6 5 5 4 4 3 2 3 3 4 5 5 6 6 6 6 6 7 7
Wind_Direction
239 236 233 230 228 229 228 227 225 225 230 234 235 236 239 244 249 254 259 264 269 274 276 277 281 284 284 285 279 277 273 267 262 255 254 252 252 252 250 249 252 259 261 261
234 231 229 227 225 225 225 226 224 226 231 232 234 237 240 244 247 253 258 262 266 270 274 276 280 281 281 278 278 273 269 265 261 258 256 259 260 258 259 256 258 260 263 263
226 225 224 222 221 220 221 222 221 225 230 233 236 239 242 244 249 254 258 263 267 270 273 276 280 277 273 274 277 275 268 264 265 265 265 265 265 267 266 264 264 263 266 266
221 223 220 218 218 219 220 220 221 225 229 233 237 242 243 243 249 255 261 265 265 267 271 276 279 271 270 276 278 273 270 267 265 267 269 269 271 272 271 269 268 270 270 269
219 218 216 216 219 219 219 222 224 228 230 234 239 243 242 240 246 255 260 261 265 268 269 272 274 274 270 275 278 276 273 272 272 273 273 273 274 276 275 274 273 271 270 270
218 216 215 216 221 221 220 220 225 230 234 237 239 244 244 245 250 256 262 262 267 267 271 272 274 275 274 275 277 278 277 277 278 277 277 276 276 277 278 276 275 273 272 271
219 219 220 221 223 223 223 224 227 231 236 241 242 245 248 251 253 258 264 266 266 269 272 275 275 276 278 276 277 278 279 281 281 280 280 278 278 278 277 277 276 274 273 272
222 221 225 227 226 228 229 231 235 240 241 244 246 251 257 258 259 265 265 267 268 270 271 275 276 276 278 280 278 278 280 282 282 281 280 279 278 278 277 276 276 275 274 272
221 223 226 226 226 229 234 237 240 244 246 247 252 258 262 267 272 274 273 271 271 274 274 274 275 277 278 280 281 281 280 281 281 280 279 277 277 276 275 275 275 274 273 271
226 222 221 222 225 230 233 238 240 245 249 254 258 261 265 270 276 279 279 279 279 277 275 272 273 277 278 280 281 280 280 279 279 278 278 277 276 275 274 274 274 274 273 271
232 229 222 224 226 231 235 241 244 249 251 257 264 267 272 274 277 280 283 284 282 277 277 274 274 276 278 281 282 280 280 281 280 278 278 278 277 276 275 273 272 271 272 271
234 236 232 229 228 232 237 247 252 255 258 263 269 273 274 275 279 281 282 285 287 285 282 280 281 281 282 283 284 284 283 282 280 280 279 279 278 277 276 274 272 271 271 271
234 234 235 233 231 234 240 247 252 256 264 269 272 276 276 281 285 286 287 287 286 286 286 284 284 283 285 285 285 284 283 282 282 282 281 280 280 279 278 276 273 271 271 271
235 235 237 237 236 239 244 248 253 260 266 270 274 279 283 286 291 292 291 290 290 288 288 287 286 285 286 287 285 284 283 283 283 282 281 281 281 281 280 277 274 272 271 271
237 236 238 238 235 240 247 252 256 262 268 272 278 282 286 289 292 291 291 290 290 290 288 288 288 289 289 288 287 285 284 282 282 282 282 282 283 283 280 276 274 272 271 270
236 236 237 237 238 244 250 255 258 265 272 277 281 284 286 289 290 291 291 292 292 291 287 287 288 289 289 288 287 285 284 283 283 284 284 284 283 282 279 277 275 272 269 266
236 239 241 240 243 251 255 259 264 269 274 281 285 287 288 290 292 293 292 293 294 291 290 289 288 289 289 288 287 284 284 285 285 285 285 284 283 282 280 277 275 270 268 265
240 244 246 242 247 252 259 263 269 275 280 284 287 289 291 294 295 294 293 295 297 295 292 291 290 290 290 290 288 286 286 286 285 285 285 285 284 282 278 275 272 266 264 263
240 241 247 250 251 257 262 266 273 280 284 289 291 291 295 297 297 297 297 298 300 300 297 294 293 292 293 292 290 288 286 285 286 286 285 284 282 279 278 275 269 263 261 259
237 240 251 259 257 262 266 273 280 286 287 292 294 294 296 299 300 302 302 302 303 303 301 299 295 294 294 292 290 289 288 288 287 287 286 283 280 277 274 271 267 261 254 250
239 247 257 263 263 266 268 276 285 290 296 297 300 301 304 306 305 305 305 304 304 304 303 299 297 296 295 293 292 291 290 289 287 286 285 284 281 274 266 262 261 252 244 239
284 271 262 261 264 268 270 282 291 297 301 304 306 307 309 309 308 308 308 306 305 307 304 301 301 302 301 300 298 296 294 290 287 285 284 278 273 267 250 241 233 227 222 214
42 358 293 277 279 284 291 295 301 304 305 309 311 312 313 313 312 313 314 314 313 311 309 306 305 307 306 306 305 300 296 292 286 283 277 265 248 230 212 208 208 204 190 178
51 19 351 323 307 305 305 307 310 311 310 311 314 318 319 320 320 319 318 319 321 321 318 314 313 313 315 315 317 314 305 298 288 278 254 226 194 184 176 172 167 164 163 163
33 17 358 339 326 318 316 318 321 322 321 321 325 327 328 330 329 327 326 327 328 328 326 324 322 322 326 330 337 339 336 342 47 114 116 126 142 154 152 153 150 150 157 161
10 2 356 342 331 327 327 328 330 331 331 331 333 334 337 339 337 335 334 335 336 338 339 337 336 340 345 350 359 9 25 63 110 118 108 109 120 134 135 136 141 140 140 142